Home > Weather > Monza > Past weeks

Flag for Italy Past Weather in Monza, Italy — Yesterday and Last 2 Weeks

Now
82 °F

Scattered clouds.


Feels Like: 82 °F
Forecast: 69 / 84 °F
Wind: 5 mph from North

Location: Milan / Linate

Current Time: Jul 23, 2016 at 7:17:02 PM

Latest Report: Jul 23, 2016 at 6:20 PM


Visibility: N/A

Pressure: 30.01 "Hg

Humidity: 45%

Dew Point: 59 °F

Location of MonzaLocation

Past Weather in Monza — Graph

°F

Monza Temperature Yesterday

Maximum temperature yesterday: 86 °F (at 2:20 PM)
Minimum temperature yesterday: 73 °F (at 5:20 AM)
Average temperature yesterday: 79 °F

High & Low Weather Summary for the Past Weeks

 TemperatureHumidityPressure
High93 °F (Jul 10, 2:50 PM)94% (Jul 12, 8:20 AM)30.15 "Hg (Jul 12, 8:20 AM)
Low57 °F (Jul 15, 4:20 AM)18% (Jul 16, 12:50 PM)29.65 "Hg (Jul 13, 3:50 PM)
Average78 °F55%29.98 "Hg
* Reported Jul 8 5:20 PM — Jul 23 5:50 PM, Monza, Weather by CustomWeather, © 2016

Note: Actual official high and low records may vary slightly from our data, if they occured in-between our weather recording intervals... More about our weather records

Advertising

Monza Weather History for the Previous 24 Hours

Scroll right to see more
 ConditionsComfort  
Time TempWeatherWind HumidityBarometerVisibility
5:50 PM
Sat, Jul 23
82 °FScattered clouds.3 mph48%30.01 "HgN/A
5:20 PM82 °FScattered clouds.2 mph48%30.04 "HgN/A
4:50 PM82 °FScattered clouds.6 mph51%30.04 "HgN/A
4:20 PM81 °FScattered clouds.5 mph51%30.04 "HgN/A
3:50 PM82 °FScattered clouds.6 mph48%30.04 "HgN/A
3:20 PM82 °FScattered clouds.6 mph48%30.04 "HgN/A
2:50 PM81 °FScattered clouds.6 mph54%30.04 "HgN/A
2:20 PM81 °FScattered clouds.8 mph51%30.04 "HgN/A
1:50 PM77 °FScattered clouds.10 mph61%30.04 "HgN/A
1:20 PM77 °FScattered clouds.9 mph57%30.04 "HgN/A
12:50 PM77 °FScattered clouds.9 mph57%30.04 "HgN/A
12:20 PM75 °FBroken clouds.10 mph65%30.07 "HgN/A
11:50 AM75 °FBroken clouds.14 mph65%30.07 "HgN/A
11:20 AM75 °FBroken clouds.14 mph69%30.04 "HgN/A
10:50 AM75 °FBroken clouds.6 mph69%30.01 "HgN/A
10:20 AM75 °FBroken clouds.2 mph69%30.04 "Hg5 mi
9:50 AM73 °FBroken clouds.2 mph74%30.01 "HgN/A
9:20 AM73 °FBroken clouds.5 mph74%30.01 "HgN/A
8:50 AM73 °FPartly sunny.3 mph74%30.01 "HgN/A
8:20 AM73 °FPartly sunny.3 mph74%29.98 "HgN/A
7:50 AM72 °FPartly sunny.7 mph78%29.98 "HgN/A
7:20 AM73 °FPartly sunny.5 mph74%29.98 "HgN/A
6:50 AM73 °FPassing clouds.No wind74%29.98 "HgN/A
6:20 AM73 °FPassing clouds.2 mph69%29.95 "HgN/A
5:50 AM73 °FPassing clouds.3 mph69%29.95 "HgN/A
5:20 AM73 °FPassing clouds.No wind69%29.95 "HgN/A
4:50 AM73 °FPassing clouds.2 mph69%29.95 "HgN/A
4:20 AM73 °FPassing clouds.No wind74%29.98 "HgN/A
3:50 AM72 °FPassing clouds.No wind78%29.98 "HgN/A
3:20 AM73 °FPassing clouds.1 mph69%29.98 "HgN/A
2:50 AM75 °FPassing clouds.1 mph65%29.95 "HgN/A
2:20 AM73 °FPassing clouds.2 mph69%29.95 "HgN/A
1:50 AM75 °FPassing clouds.3 mph61%29.98 "HgN/A
1:20 AM75 °FPassing clouds.2 mph61%29.98 "HgN/A
12:50 AM75 °FPassing clouds.No wind65%29.98 "HgN/A
12:20 AM75 °FPassing clouds.3 mph61%29.98 "HgN/A
11:50 PM
Fri, Jul 22
77 °FPassing clouds.2 mph57%29.98 "HgN/A
11:20 PM77 °FPassing clouds.5 mph57%29.98 "HgN/A
10:50 PM77 °FClear.3 mph57%29.98 "Hg10 mi
10:20 PM77 °FClear.3 mph57%29.98 "Hg10 mi
9:50 PM79 °FSunny.3 mph54%29.98 "Hg10 mi
9:20 PM81 °FSunny.5 mph51%29.95 "Hg10 mi
8:50 PM81 °FSunny.6 mph51%29.95 "Hg10 mi
8:20 PM82 °FPassing clouds.6 mph48%29.95 "HgN/A
7:50 PM82 °FPassing clouds.7 mph48%29.95 "HgN/A
7:20 PM82 °FSunny.7 mph48%29.92 "Hg10 mi
Weather by CustomWeather, © 2016

See weather overviewHow to use our weather pages